<?xml version="1.0" encoding="UTF-8" standalone="no" ?>
<gpx xmlns="http://www.topografix.com/GPX/1/1" xmlns:xsi="http://www.w3.org/2001/XMLSchema-instance" xsi:schemaLocation="http://www.topografix.com/GPX/1/1 http://www.topografix.com/GPX/1/1/gpx.xsd" version="1.1" creator="VisuGPX - https://www.visugpx.com">
  <metadata>
    <name>A la découverte de Vareilles</name>
    <desc><![CDATA[A la découverte de Vareilles et de son histoire- Panneaux historiques avec flash-codes]]></desc>
  </metadata>
  <trk>
    <name><![CDATA[track]]></name>
    <trkseg>
      <trkpt lat="48.17684" lon="3.46996">
        <ele>103</ele>
        <time>2008-01-22T00:00:00Z</time>
      </trkpt>
      <trkpt lat="48.177" lon="3.46989">
        <ele>102</ele>
        <time>2008-01-22T00:00:00Z</time>
      </trkpt>
      <trkpt lat="48.177" lon="3.46974">
        <ele>102</ele>
        <time>2008-01-22T00:00:00Z</time>
      </trkpt>
      <trkpt lat="48.17674" lon="3.46906">
        <ele>102</ele>
        <time>2008-01-22T00:00:00Z</time>
      </trkpt>
      <trkpt lat="48.17646" lon="3.46867">
        <ele>103</ele>
        <time>2008-01-22T00:00:00Z</time>
      </trkpt>
      <trkpt lat="48.17617" lon="3.46818">
        <ele>103</ele>
        <time>2008-01-22T00:00:00Z</time>
      </trkpt>
      <trkpt lat="48.17619" lon="3.46803">
        <ele>103</ele>
        <time>2008-01-22T00:00:00Z</time>
      </trkpt>
      <trkpt lat="48.17638" lon="3.46776">
        <ele>103</ele>
        <time>2008-01-22T00:00:00Z</time>
      </trkpt>
      <trkpt lat="48.17688" lon="3.46724">
        <ele>102</ele>
        <time>2008-01-22T00:00:00Z</time>
      </trkpt>
      <trkpt lat="48.17788" lon="3.4663">
        <ele>100</ele>
        <time>2008-01-22T00:00:00Z</time>
      </trkpt>
      <trkpt lat="48.17836" lon="3.46574">
        <ele>100</ele>
        <time>2008-01-22T00:00:00Z</time>
      </trkpt>
      <trkpt lat="48.17898" lon="3.46552">
        <ele>99</ele>
        <time>2008-01-22T00:00:00Z</time>
      </trkpt>
      <trkpt lat="48.17949" lon="3.46525">
        <ele>97</ele>
        <time>2008-01-22T00:00:00Z</time>
      </trkpt>
      <trkpt lat="48.18019" lon="3.46488">
        <ele>97</ele>
        <time>2008-01-22T00:00:00Z</time>
      </trkpt>
      <trkpt lat="48.18054" lon="3.46454">
        <ele>96</ele>
        <time>2008-01-22T00:00:00Z</time>
      </trkpt>
      <trkpt lat="48.18143" lon="3.46366">
        <ele>96</ele>
        <time>2008-01-22T00:00:00Z</time>
      </trkpt>
      <trkpt lat="48.18218" lon="3.46291">
        <ele>96</ele>
        <time>2008-01-22T00:00:00Z</time>
      </trkpt>
      <trkpt lat="48.18308" lon="3.46181">
        <ele>95</ele>
        <time>2008-01-22T00:00:00Z</time>
      </trkpt>
      <trkpt lat="48.18405" lon="3.46039">
        <ele>93</ele>
        <time>2008-01-22T00:00:00Z</time>
      </trkpt>
      <trkpt lat="48.18503" lon="3.46197">
        <ele>92</ele>
        <time>2008-01-22T00:00:00Z</time>
      </trkpt>
      <trkpt lat="48.18575" lon="3.46314">
        <ele>93</ele>
        <time>2008-01-22T00:00:00Z</time>
      </trkpt>
      <trkpt lat="48.18596" lon="3.46334">
        <ele>93</ele>
        <time>2008-01-22T00:00:00Z</time>
      </trkpt>
      <trkpt lat="48.18618" lon="3.46368">
        <ele>92</ele>
        <time>2008-01-22T00:00:00Z</time>
      </trkpt>
      <trkpt lat="48.18647" lon="3.46441">
        <ele>91</ele>
        <time>2008-01-22T00:00:00Z</time>
      </trkpt>
      <trkpt lat="48.18671" lon="3.46499">
        <ele>91</ele>
        <time>2008-01-22T00:00:00Z</time>
      </trkpt>
      <trkpt lat="48.18718" lon="3.46625">
        <ele>91</ele>
        <time>2008-01-22T00:00:00Z</time>
      </trkpt>
      <trkpt lat="48.18716" lon="3.46635">
        <ele>91</ele>
        <time>2008-01-22T00:00:00Z</time>
      </trkpt>
      <trkpt lat="48.18705" lon="3.46644">
        <ele>91</ele>
        <time>2008-01-22T00:00:00Z</time>
      </trkpt>
      <trkpt lat="48.18692" lon="3.46644">
        <ele>92</ele>
        <time>2008-01-22T00:00:00Z</time>
      </trkpt>
      <trkpt lat="48.18678" lon="3.4664">
        <ele>92</ele>
        <time>2008-01-22T00:00:00Z</time>
      </trkpt>
      <trkpt lat="48.18647" lon="3.46627">
        <ele>93</ele>
        <time>2008-01-22T00:00:00Z</time>
      </trkpt>
      <trkpt lat="48.18632" lon="3.46628">
        <ele>93</ele>
        <time>2008-01-22T00:00:00Z</time>
      </trkpt>
      <trkpt lat="48.18561" lon="3.4665">
        <ele>93</ele>
        <time>2008-01-22T00:00:00Z</time>
      </trkpt>
      <trkpt lat="48.18536" lon="3.46661">
        <ele>93</ele>
        <time>2008-01-22T00:00:00Z</time>
      </trkpt>
      <trkpt lat="48.18486" lon="3.46706">
        <ele>94</ele>
        <time>2008-01-22T00:00:00Z</time>
      </trkpt>
      <trkpt lat="48.18415" lon="3.46772">
        <ele>95</ele>
        <time>2008-01-22T00:00:00Z</time>
      </trkpt>
      <trkpt lat="48.18398" lon="3.46779">
        <ele>95</ele>
        <time>2008-01-22T00:00:00Z</time>
      </trkpt>
      <trkpt lat="48.18381" lon="3.46779">
        <ele>95</ele>
        <time>2008-01-22T00:00:00Z</time>
      </trkpt>
      <trkpt lat="48.18278" lon="3.46751">
        <ele>97</ele>
        <time>2008-01-22T00:00:00Z</time>
      </trkpt>
      <trkpt lat="48.18247" lon="3.46751">
        <ele>97</ele>
        <time>2008-01-22T00:00:00Z</time>
      </trkpt>
      <trkpt lat="48.18181" lon="3.46769">
        <ele>97</ele>
        <time>2008-01-22T00:00:00Z</time>
      </trkpt>
      <trkpt lat="48.18136" lon="3.4679">
        <ele>96</ele>
        <time>2008-01-22T00:00:00Z</time>
      </trkpt>
      <trkpt lat="48.18114" lon="3.46808">
        <ele>96</ele>
        <time>2008-01-22T00:00:00Z</time>
      </trkpt>
      <trkpt lat="48.18103" lon="3.46809">
        <ele>96</ele>
        <time>2008-01-22T00:00:00Z</time>
      </trkpt>
      <trkpt lat="48.18094" lon="3.46802">
        <ele>96</ele>
        <time>2008-01-22T00:00:00Z</time>
      </trkpt>
      <trkpt lat="48.18075" lon="3.46767">
        <ele>95</ele>
        <time>2008-01-22T00:00:00Z</time>
      </trkpt>
      <trkpt lat="48.18065" lon="3.46764">
        <ele>95</ele>
        <time>2008-01-22T00:00:00Z</time>
      </trkpt>
      <trkpt lat="48.18053" lon="3.46768">
        <ele>96</ele>
        <time>2008-01-22T00:00:00Z</time>
      </trkpt>
      <trkpt lat="48.17977" lon="3.4682">
        <ele>98</ele>
        <time>2008-01-22T00:00:00Z</time>
      </trkpt>
      <trkpt lat="48.17957" lon="3.46839">
        <ele>98</ele>
        <time>2008-01-22T00:00:00Z</time>
      </trkpt>
      <trkpt lat="48.17916" lon="3.46892">
        <ele>99</ele>
        <time>2008-01-22T00:00:00Z</time>
      </trkpt>
      <trkpt lat="48.17842" lon="3.46986">
        <ele>99</ele>
        <time>2008-01-22T00:00:00Z</time>
      </trkpt>
      <trkpt lat="48.17794" lon="3.47036">
        <ele>102</ele>
        <time>2008-01-22T00:00:00Z</time>
      </trkpt>
      <trkpt lat="48.17751" lon="3.47078">
        <ele>103</ele>
        <time>2008-01-22T00:00:00Z</time>
      </trkpt>
      <trkpt lat="48.17736" lon="3.471">
        <ele>103</ele>
        <time>2008-01-22T00:00:00Z</time>
      </trkpt>
      <trkpt lat="48.17632" lon="3.47174">
        <ele>104</ele>
        <time>2008-01-22T00:00:00Z</time>
      </trkpt>
      <trkpt lat="48.17631" lon="3.47184">
        <ele>104</ele>
        <time>2008-01-22T00:00:00Z</time>
      </trkpt>
      <trkpt lat="48.1766" lon="3.47308">
        <ele>107</ele>
        <time>2008-01-22T00:00:00Z</time>
      </trkpt>
      <trkpt lat="48.17684" lon="3.47416">
        <ele>113</ele>
        <time>2008-01-22T00:00:00Z</time>
      </trkpt>
      <trkpt lat="48.17708" lon="3.47586">
        <ele>128</ele>
        <time>2008-01-22T00:00:00Z</time>
      </trkpt>
      <trkpt lat="48.177" lon="3.47597">
        <ele>128</ele>
        <time>2008-01-22T00:00:00Z</time>
      </trkpt>
      <trkpt lat="48.17608" lon="3.47627">
        <ele>131</ele>
        <time>2008-01-22T00:00:00Z</time>
      </trkpt>
      <trkpt lat="48.17571" lon="3.47644">
        <ele>133</ele>
        <time>2008-01-22T00:00:00Z</time>
      </trkpt>
      <trkpt lat="48.17489" lon="3.47697">
        <ele>137</ele>
        <time>2008-01-22T00:00:00Z</time>
      </trkpt>
      <trkpt lat="48.17442" lon="3.47721">
        <ele>137</ele>
        <time>2008-01-22T00:00:00Z</time>
      </trkpt>
      <trkpt lat="48.17418" lon="3.47736">
        <ele>138</ele>
        <time>2008-01-22T00:00:00Z</time>
      </trkpt>
      <trkpt lat="48.17393" lon="3.47759">
        <ele>140</ele>
        <time>2008-01-22T00:00:00Z</time>
      </trkpt>
      <trkpt lat="48.17305" lon="3.47862">
        <ele>140</ele>
        <time>2008-01-22T00:00:00Z</time>
      </trkpt>
      <trkpt lat="48.17282" lon="3.47895">
        <ele>140</ele>
        <time>2008-01-22T00:00:00Z</time>
      </trkpt>
      <trkpt lat="48.17224" lon="3.47997">
        <ele>135</ele>
        <time>2008-01-22T00:00:00Z</time>
      </trkpt>
      <trkpt lat="48.17117" lon="3.48202">
        <ele>127</ele>
        <time>2008-01-22T00:00:00Z</time>
      </trkpt>
      <trkpt lat="48.17111" lon="3.48199">
        <ele>126</ele>
        <time>2008-01-22T00:00:00Z</time>
      </trkpt>
      <trkpt lat="48.17104" lon="3.48141">
        <ele>125</ele>
        <time>2008-01-22T00:00:00Z</time>
      </trkpt>
      <trkpt lat="48.1709" lon="3.48064">
        <ele>122</ele>
        <time>2008-01-22T00:00:00Z</time>
      </trkpt>
      <trkpt lat="48.17082" lon="3.48014">
        <ele>118</ele>
        <time>2008-01-22T00:00:00Z</time>
      </trkpt>
      <trkpt lat="48.1708" lon="3.47976">
        <ele>116</ele>
        <time>2008-01-22T00:00:00Z</time>
      </trkpt>
      <trkpt lat="48.1708" lon="3.47941">
        <ele>115</ele>
        <time>2008-01-22T00:00:00Z</time>
      </trkpt>
      <trkpt lat="48.17081" lon="3.47915">
        <ele>115</ele>
        <time>2008-01-22T00:00:00Z</time>
      </trkpt>
      <trkpt lat="48.17088" lon="3.47885">
        <ele>116</ele>
        <time>2008-01-22T00:00:00Z</time>
      </trkpt>
      <trkpt lat="48.17105" lon="3.47827">
        <ele>111</ele>
        <time>2008-01-22T00:00:00Z</time>
      </trkpt>
      <trkpt lat="48.17108" lon="3.47821">
        <ele>111.935165</ele>
        <time>2008-01-22T00:00:00Z</time>
      </trkpt>
      <trkpt lat="48.17157" lon="3.47766">
        <ele>111.913193</ele>
        <time>2008-01-22T00:00:00Z</time>
      </trkpt>
      <trkpt lat="48.17178" lon="3.47696">
        <ele>111.563087</ele>
        <time>2008-01-22T00:00:00Z</time>
      </trkpt>
      <trkpt lat="48.17209" lon="3.4747">
        <ele>105.092979</ele>
        <time>2008-01-22T00:00:00Z</time>
      </trkpt>
      <trkpt lat="48.17174" lon="3.47523">
        <ele>105.618774</ele>
        <time>2008-01-22T00:00:00Z</time>
      </trkpt>
      <trkpt lat="48.17066" lon="3.47538">
        <ele>106.889999</ele>
        <time>2008-01-22T00:00:00Z</time>
      </trkpt>
      <trkpt lat="48.17066" lon="3.47535">
        <ele>106</ele>
        <time>2008-01-22T00:00:00Z</time>
      </trkpt>
      <trkpt lat="48.17081" lon="3.4743">
        <ele>106</ele>
        <time>2008-01-22T00:00:00Z</time>
      </trkpt>
      <trkpt lat="48.17094" lon="3.47412">
        <ele>106</ele>
        <time>2008-01-22T00:00:00Z</time>
      </trkpt>
      <trkpt lat="48.17102" lon="3.47399">
        <ele>106</ele>
        <time>2008-01-22T00:00:00Z</time>
      </trkpt>
      <trkpt lat="48.17143" lon="3.47375">
        <ele>106</ele>
        <time>2008-01-22T00:00:00Z</time>
      </trkpt>
      <trkpt lat="48.1718" lon="3.47348">
        <ele>105</ele>
        <time>2008-01-22T00:00:00Z</time>
      </trkpt>
      <trkpt lat="48.17196" lon="3.47328">
        <ele>106</ele>
        <time>2008-01-22T00:00:00Z</time>
      </trkpt>
      <trkpt lat="48.17203" lon="3.47308">
        <ele>106</ele>
        <time>2008-01-22T00:00:00Z</time>
      </trkpt>
      <trkpt lat="48.17223" lon="3.47241">
        <ele>108</ele>
        <time>2008-01-22T00:00:00Z</time>
      </trkpt>
      <trkpt lat="48.17236" lon="3.47196">
        <ele>109</ele>
        <time>2008-01-22T00:00:00Z</time>
      </trkpt>
      <trkpt lat="48.17253" lon="3.47156">
        <ele>110</ele>
        <time>2008-01-22T00:00:00Z</time>
      </trkpt>
      <trkpt lat="48.17271" lon="3.47129">
        <ele>110</ele>
        <time>2008-01-22T00:00:00Z</time>
      </trkpt>
      <trkpt lat="48.17293" lon="3.47097">
        <ele>110</ele>
        <time>2008-01-22T00:00:00Z</time>
      </trkpt>
      <trkpt lat="48.1733" lon="3.47055">
        <ele>111</ele>
        <time>2008-01-22T00:00:00Z</time>
      </trkpt>
      <trkpt lat="48.17387" lon="3.46986">
        <ele>110</ele>
        <time>2008-01-22T00:00:00Z</time>
      </trkpt>
      <trkpt lat="48.17403" lon="3.46978">
        <ele>110</ele>
        <time>2008-01-22T00:00:00Z</time>
      </trkpt>
      <trkpt lat="48.17452" lon="3.46962">
        <ele>109</ele>
        <time>2008-01-22T00:00:00Z</time>
      </trkpt>
      <trkpt lat="48.17476" lon="3.4695">
        <ele>108</ele>
        <time>2008-01-22T00:00:00Z</time>
      </trkpt>
      <trkpt lat="48.17495" lon="3.46934">
        <ele>108</ele>
        <time>2008-01-22T00:00:00Z</time>
      </trkpt>
      <trkpt lat="48.17535" lon="3.46899">
        <ele>107</ele>
        <time>2008-01-22T00:00:00Z</time>
      </trkpt>
      <trkpt lat="48.17601" lon="3.46835">
        <ele>103</ele>
        <time>2008-01-22T00:00:00Z</time>
      </trkpt>
      <trkpt lat="48.17602" lon="3.46841">
        <ele>103</ele>
        <time>2008-01-22T00:00:00Z</time>
      </trkpt>
      <trkpt lat="48.17579" lon="3.47042">
        <ele>102</ele>
        <time>2008-01-22T00:00:00Z</time>
      </trkpt>
      <trkpt lat="48.17584" lon="3.47052">
        <ele>102</ele>
        <time>2008-01-22T00:00:00Z</time>
      </trkpt>
      <trkpt lat="48.17612" lon="3.47018">
        <ele>102</ele>
        <time>2008-01-22T00:00:00Z</time>
      </trkpt>
      <trkpt lat="48.17626" lon="3.47011">
        <ele>102</ele>
        <time>2008-01-22T00:00:00Z</time>
      </trkpt>
      <trkpt lat="48.17649" lon="3.47009">
        <ele>103</ele>
        <time>2008-01-22T00:00:00Z</time>
      </trkpt>
      <trkpt lat="48.17666" lon="3.47005">
        <ele>103</ele>
        <time>2008-01-22T00:00:00Z</time>
      </trkpt>
      <trkpt lat="48.17684" lon="3.46996">
        <ele>103</ele>
        <time>2008-01-22T00:00:00Z</time>
      </trkpt>
    </trkseg>
  </trk>
</gpx>